FM-5

Last updated on Sun Apr 12 2026 00:02:51 GMT+0000 (Coordinated Universal Time)

1 35493U 09034A 26101.43228161 -.00000199 00000+0 00000+0 0 9995 2 35493 0.0204 259.5687 0000245 356.2628 13.2915 1.00272923 45979
UTC large
Height (km)
Speed (km/s)
/
Latitude / Longitude
Inclination (degrees)
Orbital Period (minutes)
Azimuth
Elevation
Range (km)
Doppler Factor

Next 0 passes for location: London (51.5072 / 0.1276)

Sorry there are no passes over London.
FM-5